Location: *
(44.3925°N, 5.4708°E)
Time: 09:30:28
(UTC+00:00)

Cosmos 1544 Rocket - Pass Details

Date: 18 September 2019
Orbit: 604 x 632 km, 82.5° (Epoch: 18 October)

Event Time Altitude Azimuth Distance (km) Brightness Sun altitude
Exits shadow 20:16:55 61° 265° (W) 723 4.0 -26.7°
Maximum altitude 20:17:07 61° 281° (W) 717 4.0 -26.7°
Drops below altitude 10° 20:21:34 10° 2° (N) 2,022 6.5 -27.4°
Sets 20:23:50 0° 6° (N) 2,932 7.4 -27.7°
